Regional Weather Roundup
Issued by NWS Kansas City/Pleasant Hill, MO

Home | Current Version | Previous Version | Text Only | Print | Product List | Glossary On
Versions: 1 2 3 4 5 6 7 8 9 10 11 12 13 14 15 16 17 18 19 20 21 22 23 24 25 26 27 28 29 30 31 32 33 34 35 36 37 38 39 40 41 42 43 44 45 46 47 48 49 50
000
ASUS43 KEAX 271510
RWREAX

WEATHER ROUNDUP FOR EASTERN KANSAS AND NORTHWEST MISSOURI
NATIONAL WEATHER SERVICE KANSAS CITY/PLEASANT HILL MO
1000 AM CDT MON JUL 27 2015

KSZ040-057-103>105-MOZ028-029-037-043-271600-
...KANSAS CITY METROPOLITAN AREA...

CITY           SKY/WX    TMP DP  RH WIND       PRES   REMARKS
K.C. INTL      PTSUNNY   84  76  76 S6        29.92F HX  93
K.C. DOWNTOWN  PTSUNNY   88  73  61 SE3       29.90F HX  95
LEES SUMMIT    PTSUNNY   84  73  69 S6        29.94F HX  90
OLATHE - IXD   PTSUNNY   83  74  74 S7        29.94F
OLATHE - OJC   PTSUNNY   82  74  76 S6        29.93F
LAWRENCE       PTSUNNY   84  74  71 S7        29.92S HX  91

$$

MOZ001>008-011>017-020>025-030>033-038>040-044>046-053-054-271600-
...NORTHERN AND CENTRAL MISSOURI...

CITY           SKY/WX    TMP DP  RH WIND       PRES   REMARKS
ST. JOSEPH     PTSUNNY   83  76  79 S6        29.90F HX  91
MOSBY          PTSUNNY   84  73  70 SE5       29.92S HX  91
WARRENSBURG    PTSUNNY   81  73  78 S3        29.94F
WHITEMAN AFB   PTSUNNY   85  76  75 SW6       29.95F HX  95
CLINTON          N/A     84  79  84 CALM      29.96F HX  96
SEDALIA        PTSUNNY   86  77  74 SW6       29.97F HX  97
WARSAW         NOT AVBL
CHILLICOTHE      N/A     88  77  69 CALM      29.92F HX 100
KIRKSVILLE     MOSUNNY   84  77  79 E9        29.97S HX  94

$$

MOZ041-047>049-056>058-063>065-088>090-097-271600-
...EASTERN AND SOUTHERN MISSOURI...

CITY           SKY/WX    TMP DP  RH WIND       PRES   REMARKS
ST. LOUIS INTL PTSUNNY   87  76  69 N5        29.97S HX  97
SPIRIT OF STL  PTSUNNY   87  79  76 W3        29.95S HX 101
COLUMBIA       MOSUNNY   84  76  76 W5        29.97F HX  93
JEFFERSON CITY MOSUNNY   89  77  67 CALM      29.95F HX 101
ROLLA          MOSUNNY   84  77  79 SW6       29.99R HX  94
OSAGE BEACH    SUNNY     88  75  66 SW5       29.99S HX  97
SPRINGFIELD    SUNNY     87  76  69 SW9       29.99F HX  97
BRANSON        PTSUNNY   84  75  74 SW5       30.02S HX  92
JOPLIN         SUNNY     88  73  61 SW15      29.97F HX  95
WEST PLAINS    SUNNY     86  74  67 VRB5      30.02S HX  94

$$

IAZ060-094-KSZ022-034>040-054-083-096-NEZ052-066-093-271600-
...KANSAS...SOUTHEAST NEBRASKA AND IOWA...

CITY           SKY/WX    TMP DP  RH WIND       PRES   REMARKS
TOPEKA         PTSUNNY   83  75  77 SE6       29.91S HX  90
MANHATTAN      CLOUDY    79  70  74 S3        29.91R
EMPORIA        PTSUNNY   83  69  62 SE6       29.93S
CHANUTE        MOSUNNY   84  75  74 S12       29.95S HX  92
WICHITA        PTSUNNY   82  72  71 SE14      29.92F
OMAHA          PTSUNNY   81  77  88 S13       29.88F
LINCOLN        CLOUDY    79  70  74 S6        29.89F
FALLS CITY     CLOUDY    82  75  79 SE6       29.90F
LAMONI         SUNNY     85  77  77 VRB7      29.92F HX  95
DES MOINES     CLOUDY    83  74  74 SE12      29.91F

$$



USA.gov is the U.S. government's official web portal to all federal, state and local government web resources and services.